Theta_e
318 319 318 323 320 317 319 320 317 321 319 322 322 321 324 327 330 330 334 329 330 331 331 331 332 332 330 323 317 317 315 313 311 310 311 312 315 326 331 333 331 325 314 311 309 308 310 315 324
318 317 321 324 319 319 316 318 318 320 319 322 320 322 323 328 330 334 334 332 330 330 330 331 331 332 331 324 319 319 320 320 319 315 311 310 311 318 329 330 325 318 312 309 308 308 311 316 321
316 317 322 319 317 316 317 316 318 319 320 320 322 323 326 331 332 337 339 338 330 330 330 332 331 332 332 327 321 320 321 323 322 321 317 312 309 315 329 328 320 313 310 307 308 309 312 317 320
319 321 321 316 321 317 316 316 319 318 320 321 322 323 327 332 333 338 339 338 337 335 333 333 332 331 333 329 324 322 321 323 323 323 320 318 311 309 316 316 310 309 308 307 308 309 313 316 325
319 321 318 319 319 317 315 320 321 317 318 320 321 322 327 335 337 338 339 339 337 337 336 333 332 331 333 332 326 324 323 324 324 323 321 320 319 313 309 308 307 307 307 306 307 309 313 316 323
320 319 317 319 318 317 316 319 321 317 318 320 319 324 326 333 335 337 339 338 338 337 337 335 332 330 332 332 330 327 325 325 325 325 323 321 320 319 314 310 307 306 306 306 306 308 311 316 320
320 316 317 320 317 317 316 319 318 316 319 319 319 321 327 326 331 337 339 338 337 337 337 337 332 330 331 331 331 329 327 326 326 325 325 323 321 321 319 314 309 306 305 305 306 307 309 313 315
320 316 319 318 318 318 317 319 319 318 317 319 318 319 326 324 335 338 339 338 336 336 336 336 331 330 331 331 331 331 329 328 327 326 326 325 322 322 319 316 312 308 305 304 305 305 307 310 314
318 314 315 317 318 317 318 317 318 318 318 318 318 321 322 322 331 338 338 338 336 334 334 336 331 330 330 331 331 331 331 330 328 328 327 326 325 322 318 316 315 313 309 306 304 304 305 308 312
316 312 316 315 315 316 317 318 318 317 317 318 318 318 320 322 325 331 336 338 335 335 334 334 333 331 331 331 331 331 331 330 330 329 328 327 326 324 321 318 317 316 314 312 309 307 307 309 312
317 315 316 315 316 316 317 317 317 316 315 317 317 318 321 322 323 325 328 335 336 335 334 334 335 332 333 332 332 331 331 331 330 330 329 328 328 326 324 323 321 320 318 317 315 314 313 315 316
316 317 316 316 316 316 316 317 317 317 317 318 317 318 319 320 320 320 325 331 337 336 335 332 335 334 334 333 333 332 331 331 331 331 329 329 328 326 324 324 324 323 321 320 319 318 317 317 317
314 314 314 315 315 315 316 315 315 316 317 317 317 318 318 318 317 317 320 327 335 336 335 330 334 334 334 333 333 332 333 333 332 332 330 330 329 327 326 324 324 323 322 321 321 321 319 318 318
315 314 314 315 315 315 314 314 315 316 316 317 316 317 317 318 318 317 321 323 327 327 328 329 333 332 334 333 333 333 333 333 333 332 331 331 330 329 327 325 324 322 322 321 321 321 321 319 318
315 314 313 313 314 314 315 310 312 314 315 316 317 316 317 317 317 317 317 318 321 325 327 330 333 333 332 334 333 333 333 333 333 332 332 332 331 330 329 326 324 323 322 322 321 321 320 320 319
314 313 312 313 313 315 313 308 312 315 314 315 316 316 316 316 316 316 316 318 320 325 329 331 332 333 333 331 334 333 334 333 332 331 332 332 333 331 330 328 327 325 323 322 322 322 322 321 320
313 310 312 314 313 314 313 311 314 316 316 315 315 315 316 316 316 316 316 316 317 320 327 330 332 332 332 333 331 335 332 333 332 330 331 331 332 331 330 330 328 327 325 323 322 322 321 321 320
312 313 313 313 314 313 313 311 311 315 315 315 316 316 316 316 316 316 316 316 316 316 320 327 331 331 332 331 331 331 334 333 330 329 329 329 331 332 331 330 329 328 327 325 323 323 322 321 320
313 314 313 312 314 314 312 311 311 314 314 313 314 315 316 317 317 317 317 317 317 316 317 322 327 330 331 331 330 330 329 332 331 328 327 328 328 331 331 329 329 328 328 326 326 323 323 322 318
313 314 313 312 313 313 312 311 310 310 312 314 313 314 315 316 316 317 317 317 317 317 317 317 321 326 328 329 325 326 323 326 330 329 328 327 329 329 330 329 328 328 327 327 325 325 323 319 320
314 313 313 312 312 311 311 309 310 310 313 315 315 315 315 315 316 316 317 317 317 317 317 317 317 318 323 324 327 328 327 327 329 328 328 329 326 331 329 328 328 327 327 326 326 325 323 324 321
314 312 312 312 312 311 311 310 310 311 311 310 313 315 316 316 316 316 316 316 316 317 317 317 317 316 318 322 325 325 323 322 321 323 325 324 327 326 330 327 327 327 326 325 325 326 324 324 322
312 313 313 314 313 313 312 311 309 309 310 309 311 314 315 317 316 317 317 317 317 316 317 317 317 316 317 319 321 322 323 322 322 323 323 325 325 325 324 328 325 326 326 325 324 325 325 324 322
311 313 312 311 309 310 309 310 308 309 311 312 313 315 316 316 316 316 316 315 316 317 317 317 316 316 315 316 318 319 320 321 320 321 321 321 320 319 318 319 324 324 325 325 325 323 325 324 323
312 309 309 311 311 309 309 309 309 309 310 312 314 314 314 315 314 315 314 314 314 315 316 315 315 315 315 314 315 316 316 316 316 316 316 316 315 314 314 313 313 316 321 321 323 325 323 324 323
311 310 309 309 314 311 308 311 312 309 313 313 314 314 313 314 314 314 315 315 314 314 314 314 314 314 314 313 313 313 313 313 313 313 313 314 313 314 313 313 312 311 312 320 321 322 318 324 322
311 312 310 311 299 308 309 309 309 309 310 312 313 314 315 315 316 316 316 316 315 314 314 314 313 313 313 313 312 312 312 312 312 312 312 312 313 312 312 312 312 312 312 319 320 319 315 321 319
311 310 312 309 308 309 309 309 311 310 310 313 312 314 314 315 315 315 315 314 315 314 314 314 313 313 314 313 313 313 312 312 312 312 312 312 312 312 312 312 312 312 312 315 319 316 317 320 321
311 311 311 310 310 309 309 309 306 309 311 313 313 314 315 315 315 314 314 314 314 315 315 315 315 315 314 314 314 314 314 313 313 313 313 312 312 312 311 311 311 311 311 313 313 316 317 317 318
310 310 310 311 310 308 309 312 309 309 312 312 313 314 314 314 314 315 314 314 314 314 314 315 315 315 315 315 314 315 315 315 314 314 314 313 312 312 312 311 311 310 310 311 312 314 316 317 317
Wind_Speed
6 5 6 5 4 5 0 1 4 5 4 4 9 9 8 6 2 2 14 21 21 21 22 17 14 13 10 9 11 12 13 14 14 14 13 14 14 18 15 11 8 7 10 15 18 19 22 25 24
4 2 4 1 4 4 4 3 5 3 8 10 9 6 4 2 4 16 20 17 20 21 20 15 14 13 11 9 10 12 12 13 13 13 13 13 14 16 13 9 5 7 13 16 18 21 22 23 22
3 1 2 4 3 4 2 4 7 8 9 5 4 6 4 3 7 21 13 16 21 19 16 14 14 13 11 10 9 10 10 11 12 13 13 12 13 16 12 8 7 8 14 16 18 20 22 22 20
2 1 1 3 2 3 6 7 15 6 4 5 8 8 8 5 15 15 17 15 15 16 15 15 14 14 12 10 9 8 8 9 10 11 12 11 11 11 10 7 9 10 13 16 18 19 19 19 19
2 1 3 3 2 2 6 17 12 6 8 5 5 5 8 12 13 15 20 16 17 14 12 14 13 13 12 10 9 8 7 7 9 10 10 10 10 9 8 8 8 10 13 15 16 18 18 17 18
1 1 4 2 4 5 4 8 13 9 14 9 4 9 6 12 13 16 21 18 15 14 12 13 14 14 13 11 9 8 7 7 7 8 8 8 8 7 8 8 9 10 13 14 16 17 16 16 15
3 4 3 2 4 3 5 9 7 11 12 6 6 4 8 12 14 24 22 21 17 16 15 15 16 16 14 12 10 8 7 7 7 7 6 6 7 6 7 8 8 10 12 14 15 16 16 15 14
2 4 3 2 1 3 6 6 3 8 4 13 8 5 6 15 23 24 23 20 16 15 15 15 18 18 17 15 12 10 9 8 6 6 5 5 6 6 7 8 8 9 11 12 13 13 14 14 13
2 4 2 3 3 5 10 4 2 5 11 5 6 8 8 15 22 24 26 21 19 17 18 17 20 19 17 16 14 13 11 9 8 7 5 4 4 5 8 9 9 9 10 11 12 13 13 13 13
4 4 4 2 2 3 8 6 8 4 7 5 7 8 11 16 20 26 30 29 25 23 21 18 19 21 19 18 17 16 14 12 11 10 9 7 5 5 7 9 10 10 10 11 12 13 12 11 10
5 5 3 3 4 4 4 4 5 6 3 11 15 16 19 20 19 23 27 32 30 27 24 22 22 20 20 21 19 19 18 16 15 13 13 11 7 5 6 7 8 9 9 11 12 11 10 8 7
2 4 3 2 2 2 2 1 1 10 4 1 12 15 22 23 21 24 26 30 30 31 29 23 25 24 24 22 21 19 21 20 18 17 18 16 10 8 8 8 8 9 10 9 8 7 7 8 7
3 1 2 3 1 1 3 3 4 9 12 15 14 9 21 22 20 21 22 27 31 34 34 28 27 27 27 26 23 24 23 22 20 20 21 18 14 14 12 12 10 11 11 9 7 5 6 8 8
2 2 1 4 2 2 2 4 1 6 6 18 14 15 17 21 20 21 25 26 29 28 28 29 30 30 30 29 28 28 26 23 22 22 22 21 19 17 16 16 15 16 13 10 10 9 10 10 10
2 2 4 6 6 3 2 5 8 18 14 10 18 18 18 20 20 24 24 27 27 28 27 28 29 29 32 32 31 30 28 26 26 24 25 25 24 21 22 20 19 19 18 12 13 13 13 13 12
3 3 1 3 11 4 4 7 7 4 14 18 17 16 21 22 23 25 25 26 26 28 31 31 31 32 32 33 34 32 32 30 29 26 25 27 29 24 25 24 23 23 22 19 18 17 16 16 15
2 2 5 3 6 3 3 5 5 4 4 7 14 18 20 23 25 25 25 28 28 29 32 36 37 36 35 35 34 35 34 33 31 30 28 28 28 31 27 28 27 27 26 25 22 22 21 19 19
5 3 3 4 4 4 4 9 11 23 21 22 24 23 24 23 27 26 27 27 27 30 32 36 40 39 38 36 34 36 37 38 35 36 34 32 30 31 31 30 29 33 31 30 27 26 24 23 23
4 4 1 1 4 4 6 8 11 21 24 24 28 29 31 30 27 26 25 29 30 29 34 37 41 43 42 41 40 41 43 43 40 39 38 37 38 34 33 35 33 33 38 31 31 30 29 28 29
3 3 3 2 2 3 6 11 11 13 21 31 33 34 34 32 29 29 29 29 32 32 31 36 40 44 44 45 43 42 42 44 44 42 41 40 39 39 38 39 37 38 37 38 36 37 36 35 35
2 4 3 5 1 2 4 8 7 7 11 19 24 29 28 28 30 29 26 29 33 35 35 35 37 42 44 44 43 43 44 44 44 45 44 45 43 39 41 42 42 41 42 41 39 42 44 39 37
2 0 4 4 3 3 3 6 6 7 13 6 20 22 23 25 24 20 18 25 28 33 35 36 35 36 40 42 43 44 45 47 47 47 47 45 44 41 42 44 45 43 43 44 46 43 43 43 39
6 2 2 2 2 2 4 1 8 5 6 11 13 14 10 9 8 8 10 13 19 23 30 35 36 35 36 40 43 44 45 46 46 46 46 45 44 44 44 46 47 49 49 50 46 44 46 49 49
8 5 7 5 3 3 8 8 4 4 5 3 3 3 4 6 4 6 7 9 13 20 22 28 33 34 35 38 42 44 44 44 44 45 44 43 42 42 44 45 49 51 51 52 51 48 49 50 52
5 6 2 3 2 6 4 1 6 6 5 4 4 7 6 8 12 10 15 17 16 16 18 21 25 30 32 34 37 40 41 42 42 42 43 43 43 43 41 40 44 49 52 53 52 48 49 53 54
7 7 6 7 4 4 5 6 4 7 4 8 7 11 12 11 10 13 12 13 12 12 15 18 21 24 26 29 32 34 36 38 39 40 41 42 43 42 39 38 38 42 47 51 51 52 49 57 48
5 6 6 4 2 3 5 7 8 9 7 16 19 13 13 13 15 15 14 12 15 12 15 17 19 20 21 23 25 28 31 33 34 35 36 39 40 39 38 37 37 38 42 49 50 49 48 49 51
6 5 3 2 3 4 5 5 8 10 9 4 7 11 14 13 15 18 19 17 13 14 16 16 16 15 14 15 17 20 23 25 27 29 32 32 34 35 35 35 36 38 39 44 49 49 50 49 51
3 2 2 4 5 5 2 7 7 8 7 4 4 8 11 11 11 12 17 21 23 19 13 10 7 5 4 6 10 14 17 19 22 24 26 29 30 32 34 33 33 35 37 41 44 50 51 46 51
3 5 6 4 3 4 3 13 3 10 4 12 10 15 16 16 21 18 24 26 25 22 18 14 9 7 7 10 17 19 21 22 24 25 26 27 29 31 32 32 31 32 35 39 39 44 47 47 53
Wind_Direction
217 243 288 317 48 68 246 41 136 97 49 83 76 71 116 75 76 163 139 160 167 156 151 150 151 132 122 112 105 95 90 90 91 92 97 105 111 120 112 110 90 81 88 91 90 95 99 99 92
189 244 286 346 85 71 293 151 98 104 120 100 93 61 86 87 68 133 142 156 167 161 157 150 150 143 133 116 102 100 97 92 91 91 94 99 108 121 111 109 99 101 95 94 97 103 108 107 104
139 315 347 102 102 126 159 114 141 113 114 116 99 82 73 94 120 139 154 164 170 164 163 158 156 150 143 130 116 105 102 102 97 93 93 96 109 121 122 126 98 91 96 98 104 108 111 109 105
152 98 309 78 122 339 112 158 127 107 91 107 111 83 90 123 143 143 164 163 172 170 172 172 166 162 155 142 127 115 105 102 99 94 92 93 101 119 130 111 85 96 99 104 108 114 118 115 101
85 271 45 13 37 126 98 146 131 142 149 141 107 154 109 127 158 155 167 171 177 175 173 175 172 167 161 152 145 138 132 122 111 103 95 93 95 105 116 108 103 103 104 108 116 123 125 119 116
8 45 56 319 160 151 105 134 144 134 137 134 121 123 145 164 175 163 163 162 174 180 180 183 181 179 174 170 166 158 153 143 130 117 105 96 99 106 107 109 111 113 114 118 123 130 130 127 130
107 79 194 262 230 112 153 149 148 144 144 160 134 85 143 177 188 161 164 171 174 179 189 196 191 186 183 182 182 176 170 163 150 133 115 99 94 108 112 116 117 118 121 125 133 136 137 136 136
85 97 341 269 254 147 156 128 159 140 146 150 160 147 177 173 163 164 167 173 186 195 199 203 197 193 191 190 192 192 186 182 168 158 143 110 102 111 117 121 124 127 128 134 139 141 143 145 146
113 65 297 281 323 160 155 115 140 109 137 148 151 147 156 165 166 171 170 181 194 198 211 224 204 201 200 201 200 201 198 193 190 187 182 162 137 130 131 131 131 132 134 139 141 145 148 151 150
110 113 234 322 70 156 159 142 172 164 143 148 163 154 165 170 179 181 179 184 192 199 203 217 210 207 206 208 208 209 210 208 208 204 197 190 170 159 148 140 135 134 139 146 148 149 156 162 164
170 172 205 27 47 64 121 129 180 164 219 203 205 183 181 183 192 194 191 190 195 200 204 210 207 212 215 213 214 216 215 214 212 210 209 207 192 184 169 159 151 148 150 155 159 165 171 180 170
138 248 140 139 14 27 80 274 224 196 218 114 217 215 195 199 202 201 200 194 202 206 211 208 211 211 212 209 215 225 225 220 219 216 216 220 198 191 191 185 180 171 166 168 166 174 184 204 202
132 273 99 154 289 259 267 244 242 256 233 249 263 205 207 211 213 211 210 204 206 213 219 215 211 216 219 217 215 223 229 228 224 219 222 229 211 205 208 194 204 195 191 184 194 187 202 210 222
115 75 176 186 183 236 259 267 338 248 240 232 235 228 217 217 222 216 210 211 216 222 222 217 216 214 216 216 218 221 230 231 227 223 229 231 229 221 220 213 211 203 206 224 221 213 218 215 218
75 23 327 211 188 181 225 306 230 259 243 232 231 238 230 230 227 232 231 224 222 226 229 225 226 225 218 220 218 222 229 232 230 229 230 237 234 231 227 224 220 219 209 226 238 237 225 217 219
108 60 63 301 154 194 143 269 288 338 217 228 229 235 234 231 242 242 240 237 232 230 228 231 231 232 231 223 220 222 227 232 231 231 233 233 232 237 232 230 226 226 224 218 241 225 242 228 227
345 211 205 306 176 131 172 253 261 28 338 239 243 241 246 248 247 247 245 243 239 234 230 228 232 234 235 235 223 221 224 226 233 235 234 237 238 236 240 236 231 229 231 232 230 225 225 228 225
192 200 282 215 233 154 205 258 274 283 289 275 273 261 259 250 247 248 247 246 245 240 235 232 233 237 238 239 237 226 231 231 229 232 232 236 238 236 240 238 235 234 231 232 228 228 224 230 227
148 131 200 219 218 170 230 261 269 277 282 274 268 261 255 253 259 252 249 247 245 242 237 234 232 235 236 236 235 228 229 228 232 232 235 234 237 240 240 236 239 238 236 240 234 224 222 227 219
184 180 249 319 171 156 273 272 264 258 258 261 264 267 261 259 259 254 253 250 245 246 244 239 237 236 237 239 240 237 234 233 234 238 238 237 234 237 238 240 238 237 236 235 235 227 218 220 223
172 171 222 218 353 288 335 288 289 289 260 284 272 268 269 264 265 261 255 253 250 247 247 244 244 242 240 240 239 238 239 238 237 237 237 237 238 230 234 238 239 239 237 237 236 234 227 233 226
221 210 237 257 61 233 87 288 288 266 275 280 283 273 265 271 273 274 269 258 252 251 253 249 247 248 244 241 242 242 241 239 241 241 240 241 240 235 232 237 241 242 242 242 239 240 238 235 238
201 160 109 110 149 68 303 265 276 264 279 267 272 281 304 300 291 291 267 263 259 261 255 255 249 249 249 247 246 247 245 246 247 247 249 247 246 245 241 237 241 243 243 243 245 244 239 238 243
154 75 39 37 73 293 206 192 269 237 222 301 335 94 52 47 11 316 305 301 279 258 253 251 248 248 250 250 249 249 249 249 249 250 251 251 250 248 247 244 240 242 244 246 244 246 246 244 250
100 91 346 336 360 233 324 238 249 274 259 249 330 335 351 335 331 314 302 307 292 267 256 255 250 249 249 250 252 252 253 254 254 254 255 256 256 255 254 252 250 243 242 245 247 243 246 244 240
192 160 162 197 205 265 327 239 252 244 291 357 324 320 350 9 2 344 328 311 312 285 265 257 256 255 253 253 254 254 255 256 257 258 259 260 261 262 262 259 256 253 245 243 243 243 252 250 239
207 213 178 86 48 43 239 295 289 272 336 342 347 26 37 18 4 348 337 322 307 292 278 275 265 262 259 257 255 255 256 257 259 262 263 265 266 267 267 264 260 259 249 244 245 248 250 239 257
145 174 75 5 153 242 262 278 223 307 313 49 51 21 6 17 23 27 26 9 338 314 299 284 268 261 256 258 258 259 259 259 261 260 261 264 267 267 267 267 263 259 254 244 243 250 248 248 250
126 193 165 146 155 174 274 256 217 192 140 150 66 34 34 32 34 18 6 6 8 9 352 322 293 265 268 300 296 282 273 264 262 262 262 264 267 268 269 269 266 261 256 245 248 248 246 249 251
129 184 163 162 240 222 181 266 148 136 163 93 48 19 360 346 341 332 343 342 343 345 354 345 318 313 321 317 323 301 289 278 271 270 271 266 266 270 269 270 267 261 255 248 250 247 248 250 252